Location: Newark
(48.6461°N, 4.3644°W)
Time: 03:28:44
(UTC+00:00)

Transit 4A - Pass Details

Date: 02 February 2020
Orbit: 872 x 973 km, 66.8° (Epoch: 18 February)

Event Time Altitude Azimuth Distance (km) Brightness Sun altitude
Rises 07:18:40 0° 262° (W) 3,515 - -5.1°
Exits shadow 07:19:22 - 264° (W) 3,281 10.2 -5.0°
Reaches altitude 10° 07:21:42 10° 276° (W) 2,562 9.6 -4.6°
Maximum altitude 07:26:23 24° 329° (NNW) 1,765 9.0 -3.9°
Drops below altitude 10° 07:31:02 10° 21° (NNE) 2,537 10.2 -3.2°
Sets 07:34:03 0° 36° (NE) 3,473 11.1 -2.7°
